When you browse on this site, cookies collect data to enhance your experience and personalize the content and advertising you see.
Visit our Privacy Policy to learn more. By continuing to use the site, you agree to this use of cookies and data.
  • In Czech Republic
  • List of Countries
  • For 7 days
  • Water Temperature
  • Satellite Maps
  • Weather Map
  • Weather Widgets
  • user-avatar
    Login

    Hourly Weather Thunder Bay

    Today, 20 June, Thursday

    Time Temperature Precipitation Wind Pressure Humidity
    00:00 +11°C° 0 mm 1 mps 733 mmHg 72%
    01:00 +10°C° 0 mm 1 mps 733 mmHg 72%
    02:00 +10°C° 0 mm 1 mps 733 mmHg 73%
    03:00 +9°C° 0 mm 1 mps 733 mmHg 74%
    04:00 +10°C° 0 mm 1 mps 733 mmHg 71%
    05:00 +11°C° 0 mm 1 mps 733 mmHg 68%
    06:00 +12°C° 0 mm 0 mps 733 mmHg 65%
    07:00 +15°C° 0 mm 1 mps 734 mmHg 59%
    08:00 +18°C° 0 mm 1 mps 734 mmHg 52%
    09:00 +19°C° 0 mm 2 mps 734 mmHg 46%
    10:00 +19°C° 0 mm 2 mps 734 mmHg 45%
    11:00 +19°C° 0 mm 3 mps 734 mmHg 44%
    12:00 +20°C° 0 mm 3 mps 734 mmHg 44%
    13:00 +20°C° 0 mm 3 mps 733 mmHg 43%
    14:00 +20°C° 0 mm 3 mps 733 mmHg 43%
    15:00 +20°C° 0 mm 3 mps 733 mmHg 43%
    16:00 +19°C° 0 mm 2 mps 733 mmHg 45%
    17:00 +19°C° 0 mm 2 mps 733 mmHg 47%
    18:00 +18°C° 0 mm 2 mps 734 mmHg 50%
    19:00 +16°C° 0 mm 2 mps 734 mmHg 56%
    20:00 +14°C° 0 mm 1 mps 734 mmHg 63%
    21:00 +12°C° 0 mm 1 mps 734 mmHg 69%
    22:00 +11°C° 0 mm 1 mps 734 mmHg 69%
    23:00 +11°C° 0 mm 1 mps 735 mmHg 69%

    Tomorrow, 21 June, Friday

    Time Temperature Precipitation Wind Pressure Humidity
    00:00 +11°C° 0 mm 1 mps 735 mmHg 68%
    01:00 +11°C° 0 mm 1 mps 735 mmHg 69%
    02:00 +10°C° 0 mm 1 mps 735 mmHg 70%
    03:00 +10°C° 0 mm 1 mps 735 mmHg 71%
    04:00 +11°C° 0 mm 1 mps 736 mmHg 69%
    05:00 +11°C° 0 mm 0 mps 737 mmHg 66%
    06:00 +12°C° 0 mm 0 mps 737 mmHg 64%
    07:00 +15°C° 0 mm 1 mps 737 mmHg 59%
    08:00 +18°C° 0 mm 1 mps 737 mmHg 53%
    09:00 +19°C° 0 mm 2 mps 737 mmHg 48%
    10:00 +19°C° 0 mm 2 mps 738 mmHg 47%
    11:00 +19°C° 0 mm 3 mps 738 mmHg 46%
    12:00 +20°C° 0 mm 4 mps 738 mmHg 44%
    13:00 +20°C° 0 mm 3 mps 738 mmHg 45%
    14:00 +19°C° 0 mm 3 mps 738 mmHg 45%
    15:00 +19°C° 0 mm 3 mps 738 mmHg 45%
    16:00 +19°C° 0 mm 2 mps 738 mmHg 48%
    17:00 +18°C° 0 mm 2 mps 738 mmHg 50%
    18:00 +19°C° 0 mm 1 mps 738 mmHg 53%
    19:00 +16°C° 0 mm 1 mps 738 mmHg 58%
    20:00 +14°C° 0 mm 1 mps 738 mmHg 63%
    21:00 +12°C° 0 mm 1 mps 738 mmHg 68%
    22:00 +11°C° 0 mm 1 mps 738 mmHg 71%
    23:00 +10°C° 0 mm 1 mps 738 mmHg 75%

    Day after tomorrow, 22 June, Saturday

    Time Temperature Precipitation Wind Pressure Humidity
    00:00 +9°C° 0 mm 1 mps 738 mmHg 78%
    01:00 +9°C° 0 mm 1 mps 738 mmHg 77%
    02:00 +8°C° 0 mm 2 mps 738 mmHg 76%
    03:00 +8°C° 0 mm 2 mps 738 mmHg 75%
    04:00 +9°C° 0 mm 2 mps 738 mmHg 71%
    05:00 +10°C° 0 mm 2 mps 739 mmHg 67%
    06:00 +10°C° 0 mm 2 mps 739 mmHg 63%
    07:00 +12°C° 0 mm 3 mps 739 mmHg 59%
    08:00 +13°C° 0 mm 3 mps 739 mmHg 54%
    09:00 +15°C° 0 mm 4 mps 738 mmHg 50%
    10:00 +15°C° 0 mm 4 mps 738 mmHg 49%
    11:00 +17°C° 0 mm 4 mps 738 mmHg 49%
    12:00 +17°C° 0 mm 4 mps 738 mmHg 48%
    13:00 +15°C° 0 mm 4 mps 737 mmHg 52%
    14:00 +14°C° 0 mm 4 mps 737 mmHg 56%
    15:00 +13°C° 0 mm 4 mps 737 mmHg 60%
    16:00 +13°C° 0 mm 4 mps 736 mmHg 62%
    17:00 +13°C° 0 mm 4 mps 736 mmHg 64%
    18:00 +13°C° 0 mm 4 mps 736 mmHg 65%
    19:00 +12°C° 0 mm 3 mps 736 mmHg 69%
    20:00 +11°C° 0 mm 3 mps 735 mmHg 74%
    21:00 +9°C° 0 mm 2 mps 735 mmHg 78%
    22:00 +10°C° 0 mm 2 mps 735 mmHg 81%
    23:00 +10°C° 0 mm 2 mps 734 mmHg 84%

    23 June, Sunday

    Time Temperature Precipitation Wind Pressure Humidity
    00:00 +10°C° 0 mm 2 mps 734 mmHg 88%
    01:00 +10°C° 0 mm 2 mps 733 mmHg 89%
    02:00 +12°C° 0 mm 2 mps 733 mmHg 91%
    03:00 +12°C° 0 mm 2 mps 733 mmHg 93%
    04:00 +12°C° 0.1 mm 2 mps 732 mmHg 93%
    05:00 +12°C° 0.1 mm 2 mps 732 mmHg 94%
    06:00 +11°C° 0.1 mm 3 mps 732 mmHg 94%
    07:00 +11°C° 0.3 mm 3 mps 731 mmHg 95%
    08:00 +12°C° 0.3 mm 3 mps 731 mmHg 97%
    09:00 +12°C° 0.3 mm 3 mps 730 mmHg 98%
    10:00 +12°C° 0.4 mm 3 mps 730 mmHg 98%
    11:00 +12°C° 0.4 mm 3 mps 729 mmHg 98%
    12:00 +13°C° 0.4 mm 3 mps 729 mmHg 98%
    13:00 +12°C° 5.6 mm 3 mps 728 mmHg 98%
    14:00 +12°C° 5.6 mm 3 mps 727 mmHg 99%
    15:00 +12°C° 5.6 mm 3 mps 727 mmHg 99%
    16:00 +12°C° 0.8 mm 3 mps 726 mmHg 99%
    17:00 +13°C° 0.8 mm 2 mps 726 mmHg 99%
    18:00 +13°C° 0.8 mm 2 mps 726 mmHg 99%
    19:00 +13°C° 0 mm 2 mps 726 mmHg 99%
    20:00 +14°C° 0 mm 2 mps 726 mmHg 99%
    21:00 +14°C° 0 mm 2 mps 726 mmHg 99%
    22:00 +14°C° 0 mm 2 mps 726 mmHg 98%
    23:00 +14°C° 0 mm 2 mps 726 mmHg 98%

    24 June, Monday

    Time Temperature Precipitation Wind Pressure Humidity
    00:00 +14°C° 0 mm 2 mps 726 mmHg 98%
    01:00 +13°C° 0 mm 2 mps 726 mmHg 97%
    02:00 +13°C° 0 mm 2 mps 726 mmHg 97%
    03:00 +13°C° 0 mm 2 mps 726 mmHg 96%
    04:00 +13°C° 0 mm 2 mps 726 mmHg 96%
    05:00 +14°C° 0 mm 2 mps 726 mmHg 96%
    06:00 +14°C° 0 mm 2 mps 726 mmHg 95%
    07:00 +16°C° 0 mm 2 mps 727 mmHg 85%
    08:00 +18°C° 0 mm 3 mps 727 mmHg 74%
    09:00 +20°C° 0 mm 3 mps 727 mmHg 63%
    10:00 +21°C° 0 mm 4 mps 727 mmHg 58%
    11:00 +22°C° 0 mm 4 mps 727 mmHg 54%
    12:00 +23°C° 0 mm 4 mps 726 mmHg 49%
    13:00 +22°C° 0 mm 4 mps 726 mmHg 54%
    14:00 +21°C° 0 mm 4 mps 726 mmHg 59%
    15:00 +20°C° 0 mm 4 mps 726 mmHg 64%
    16:00 +20°C° 0.2 mm 4 mps 726 mmHg 66%
    17:00 +20°C° 0.2 mm 3 mps 726 mmHg 68%
    18:00 +20°C° 0.2 mm 3 mps 726 mmHg 70%
    19:00 +18°C° 0.1 mm 2 mps 727 mmHg 75%
    20:00 +17°C° 0.1 mm 2 mps 727 mmHg 80%
    21:00 +15°C° 0.1 mm 1 mps 727 mmHg 86%
    22:00 +15°C° 0.2 mm 1 mps 727 mmHg 87%
    23:00 +14°C° 0.2 mm 1 mps 727 mmHg 88%

    25 June, Tuesday

    Time Temperature Precipitation Wind Pressure Humidity
    00:00 +14°C° 0.2 mm 1 mps 727 mmHg 90%
    01:00 +14°C° 0 mm 1 mps 727 mmHg 90%
    02:00 +14°C° 0 mm 1 mps 728 mmHg 91%
    03:00 +14°C° 0 mm 2 mps 728 mmHg 92%
    04:00 +14°C° 0 mm 1 mps 728 mmHg 92%
    05:00 +15°C° 0 mm 1 mps 728 mmHg 91%
    06:00 +16°C° 0 mm 1 mps 729 mmHg 91%
    07:00 +18°C° 0 mm 2 mps 729 mmHg 81%
    08:00 +20°C° 0 mm 2 mps 729 mmHg 70%
    09:00 +23°C° 0 mm 2 mps 729 mmHg 60%
    10:00 +24°C° 0.3 mm 3 mps 729 mmHg 61%
    11:00 +24°C° 0.3 mm 3 mps 729 mmHg 62%
    12:00 +24°C° 0.3 mm 3 mps 729 mmHg 63%
    13:00 +21°C° 0.3 mm 3 mps 728 mmHg 70%
    14:00 +20°C° 0.3 mm 2 mps 728 mmHg 76%
    15:00 +18°C° 0.3 mm 2 mps 728 mmHg 83%
    16:00 +19°C° 0.2 mm 2 mps 728 mmHg 80%
    17:00 +19°C° 0.2 mm 2 mps 729 mmHg 78%
    18:00 +21°C° 0.2 mm 1 mps 729 mmHg 76%
    19:00 +19°C° 0.2 mm 2 mps 729 mmHg 79%
    20:00 +18°C° 0.2 mm 2 mps 730 mmHg 82%
    21:00 +17°C° 0.2 mm 2 mps 730 mmHg 86%
    22:00 +16°C° 0 mm 2 mps 731 mmHg 88%
    23:00 +15°C° 0 mm 2 mps 731 mmHg 91%
    Show more